User: anonymous   Login
Location: Lafig�re
(44.4503°N, 4.0357°E)
Time: 23:08:03
(UTC+00:00)
Language:

YAOGAN 1 - Orbit

View from above orbital plane
View from above orbital plane
View from above satellite
View from above satellite

Ground track
Ground track

The orbit data is extracted from the following two-line orbital elements,

1 29092U 06015A   20337.31249686  .00000187  00000-0  29531-4 0  9998
2 29092  97.9275   0.4776 0001405  89.8455 270.2919 14.83108295789618
Epoch (UTC): 02 December 2020 07:29:59
Eccentricity: 0.0001405
inclination: 97.9275°
perigee height: 618 km
apogee height: 620 km
right ascension of ascending node: 0.4776°
argument of perigee: 89.8455°
revolutions per day: 14.83108295
mean anomaly at epoch: 270.2919°
orbit number at epoch: 78961

The dashed part of the orbit path shows where the satellite is in the earth's shadow,  

DLR